Simultaneous Nadir Overpasses (SNOs) Predictions

Prediction of SNOs between GOES-17 and AQUA Satellite Orbit:

Table of predicted SNOs for the next 14.0 days since TLE Epoch: 2/29/2020
Index Date Time (GOES-17) GOES-17 Lat,Lon AQUA Lat,Lon Distance(km) Time Diff (sec)
1 02/29/2020 10:51:54 0.02,-137.22 0.29,-138.66 163.47 80
2 03/02/2020 10:37:03 0.02,-137.22 -0.29,-135.70 172.55 80
3 03/02/2020 22:58:26 -0.02,-137.21 -0.82,-140.89 418.22 80
4 03/04/2020 22:46:17 -0.02,-137.20 -0.17,-137.94 83.37 80
5 03/06/2020 22:36:46 -0.02,-137.18 0.43,-134.98 250.71 80
6 03/07/2020 10:58:02 0.02,-137.18 0.62,-140.14 336.05 80
7 03/09/2020 10:45:51 0.01,-137.16 0.02,-137.18 2.89 80
8 03/11/2020 10:31:02 0.01,-137.13 -0.64,-134.23 330.25 80
9 03/11/2020 22:52:24 -0.01,-137.12 -0.51,-139.41 261.16 80
10 03/13/2020 22:42:53 -0.01,-137.08 0.10,-136.45 71.36 80




NCC Satellite Simultaneous Nadir Overpasses (SNOs) Prediction Service
